Temperature
19 19 20 20 17 14 17 18 18 18 18 20 20 19 18 18 19 19 20 19 18 18 17 14 14 13 13 12 12 12 12 11 11 11 11 10 10 10 10 10 10 10 10 11 11 11 11 11 11
19 19 20 19 14 15 17 18 18 18 20 20 20 20 19 19 19 20 19 19 18 17 17 15 14 13 13 12 12 12 11 11 11 11 10 10 10 10 10 10 10 10 10 11 11 11 11 11 11
19 19 20 15 15 16 18 18 18 19 20 20 19 20 20 20 20 20 19 19 18 17 17 16 14 13 13 12 12 11 11 11 11 10 10 10 10 10 10 10 11 11 11 11 11 11 11 11 11
19 20 19 15 17 17 17 18 18 19 20 20 20 19 19 20 20 20 19 19 18 17 16 16 14 13 13 12 12 11 11 11 10 10 10 10 10 10 10 10 11 11 11 11 11 11 11 11 11
19 19 15 15 17 17 17 18 18 18 19 19 20 19 19 20 20 19 19 18 18 17 16 15 14 13 12 12 12 11 11 11 10 10 10 10 10 10 10 10 10 10 10 10 11 11 11 11 11
20 16 14 15 16 17 17 19 19 19 19 19 19 19 19 20 20 19 19 18 17 17 16 15 14 13 12 12 11 11 11 11 10 10 10 10 10 10 10 10 10 10 10 10 10 10 11 11 11
18 14 15 16 16 17 18 19 19 18 19 19 20 18 19 19 19 19 18 17 17 16 16 15 13 12 12 12 11 11 11 10 10 10 10 9 9 9 9 10 10 10 10 10 10 10 10 10 10
19 14 16 15 17 18 19 19 19 19 19 19 19 19 19 19 19 19 18 17 16 16 15 14 13 12 12 11 11 11 11 10 10 10 10 9 9 9 9 9 9 9 9 9 9 9 9 10 10
19 14 15 17 17 18 19 19 20 19 19 19 19 19 19 19 19 18 18 17 16 15 15 14 13 13 12 11 11 11 10 10 10 10 10 9 9 9 9 9 9 9 9 9 9 9 9 9 9
18 14 17 17 17 18 18 19 19 19 18 19 19 19 19 19 18 18 18 18 17 16 15 14 13 13 12 11 11 11 10 10 10 10 10 9 9 9 9 9 9 8 8 8 8 8 8 8 8
17 15 17 17 18 18 18 18 19 18 17 19 19 19 19 18 18 18 18 17 17 16 15 14 13 13 12 11 11 10 10 10 10 9 9 9 9 9 9 8 8 8 8 8 8 8 8 8 8
17 17 17 18 19 18 18 18 18 18 19 19 19 19 18 18 18 18 18 17 16 16 15 14 13 13 12 11 11 11 10 10 10 9 9 9 9 9 8 8 8 8 8 8 8 8 8 8 7
17 17 18 18 18 18 18 17 17 18 19 19 18 18 18 18 18 17 17 16 16 16 15 14 13 13 12 11 11 11 10 10 10 9 9 9 9 9 8 8 8 8 8 7 7 7 7 7 7
17 17 17 17 17 17 16 16 16 18 18 18 18 18 18 18 17 17 17 16 16 16 15 14 14 13 12 11 11 11 10 10 10 9 9 9 9 8 8 8 8 8 7 7 7 7 7 7 7
17 16 15 16 16 16 16 15 15 19 18 18 18 18 18 17 17 17 17 17 16 16 15 14 14 13 12 11 11 11 10 10 10 9 9 9 8 8 8 8 8 8 7 7 7 7 7 7 7
16 14 15 15 15 16 16 15 15 18 18 17 18 18 17 17 17 17 17 16 16 16 15 15 14 13 12 11 11 11 10 10 9 9 9 9 9 8 8 8 8 8 7 7 7 7 7 7 7
14 14 14 15 15 15 15 14 14 18 17 16 17 17 17 17 17 17 17 16 16 16 15 15 14 13 12 11 11 11 10 10 9 9 9 9 9 8 8 8 8 8 8 7 7 7 7 7 7
14 14 14 14 15 15 14 13 14 16 16 16 16 17 17 17 17 16 16 16 16 15 15 14 14 13 12 11 11 10 10 10 9 9 9 9 9 9 8 8 8 8 8 7 7 7 7 6 6
14 14 13 13 14 14 13 13 14 15 14 14 15 16 17 17 16 16 16 16 15 15 15 14 14 13 12 11 11 10 10 10 10 9 9 9 9 9 9 8 8 8 7 7 7 7 7 6 6
13 13 13 12 13 13 12 12 13 12 13 15 15 15 16 16 16 16 15 15 15 15 14 14 13 13 12 11 11 11 10 10 10 10 10 9 9 9 9 8 8 8 7 7 7 6 6 6 6
13 13 13 13 13 13 12 12 12 12 13 14 14 15 16 16 17 16 15 15 15 15 14 14 13 13 12 12 11 11 10 10 10 10 10 9 9 9 8 8 8 7 7 7 6 6 6 6 6
12 12 13 13 12 11 12 11 12 12 11 11 13 13 14 15 16 16 15 15 15 14 14 14 13 12 12 12 11 11 11 10 10 10 10 9 9 8 8 8 7 7 7 6 6 6 6 5 5
13 13 13 13 12 11 10 11 12 11 12 12 12 13 14 15 15 15 15 15 15 14 14 13 13 12 12 12 11 11 11 10 10 10 9 9 9 8 8 7 7 7 7 6 6 6 5 5 5
12 12 11 9 10 10 10 10 10 11 13 13 12 13 13 14 14 14 14 14 14 14 13 13 13 12 12 11 11 11 11 10 10 10 9 9 8 8 8 7 7 7 6 6 6 5 5 5 4
13 12 11 11 10 10 10 9 10 12 12 11 12 13 14 14 14 14 14 14 14 14 13 13 12 12 12 11 11 11 10 10 10 9 9 9 8 8 7 7 7 6 6 6 5 5 5 4 4
11 12 11 11 11 10 10 9 11 12 12 13 13 13 14 14 14 14 14 14 14 13 13 13 12 12 11 11 11 10 10 10 10 9 9 8 8 7 7 7 6 6 6 5 5 5 4 4 4
11 11 11 10 10 10 10 10 10 13 13 12 12 12 13 13 14 14 14 14 14 13 13 13 12 12 11 11 11 10 10 10 9 9 8 8 7 7 7 6 6 5 5 5 4 4 4 4 3
11 10 9 10 10 10 10 10 11 13 14 12 11 11 12 13 14 14 14 14 13 13 13 12 12 11 11 11 10 10 10 9 9 8 8 7 7 7 6 6 5 5 5 4 4 4 3 3 3
10 10 10 9 9 10 10 11 11 12 12 11 11 13 13 14 14 14 14 14 13 13 12 12 11 11 11 10 10 10 9 9 8 8 7 7 6 6 6 5 5 4 4 4 3 3 3 3 2
11 10 9 10 9 8 8 11 12 11 11 11 12 14 15 15 15 14 14 13 13 12 12 12 11 11 10 10 10 9 9 8 8 7 7 6 6 6 5 5 4 4 4 3 3 3 2 2 2
Wind_Speed
6 3 2 4 6 6 1 2 2 2 3 2 2 6 9 6 4 2 1 9 7 10 17 17 18 16 14 13 13 13 12 11 11 11 11 11 11 11 12 12 12 12 13 13 13 14 14 14 14
2 2 5 5 5 3 3 3 3 5 2 4 4 4 4 2 1 2 2 8 8 14 17 16 18 17 15 14 13 13 12 12 11 10 10 10 11 11 11 11 11 11 12 12 12 12 13 13 13
1 4 5 5 4 5 4 4 5 3 1 3 3 2 3 2 1 4 4 9 10 14 16 17 19 17 16 15 14 14 13 11 10 10 9 9 10 10 10 10 10 10 11 11 11 11 12 12 12
3 5 5 5 2 3 4 3 2 2 2 2 4 2 1 0 1 2 7 10 10 11 15 18 19 17 16 15 15 13 12 11 10 9 9 9 9 9 9 9 9 9 9 10 10 10 11 11 11
4 5 6 4 2 3 3 2 0 0 0 1 4 4 2 2 2 5 10 11 12 10 14 17 19 17 16 15 14 13 12 12 10 9 9 9 8 8 8 8 8 8 8 8 9 9 9 10 10
5 5 5 1 4 5 2 2 1 0 0 1 5 4 3 2 3 5 8 9 9 10 14 16 18 17 17 15 15 14 13 12 11 10 9 8 8 7 7 6 6 6 6 7 7 7 8 8 8
5 5 4 1 2 3 3 2 2 1 1 2 5 5 3 2 4 7 7 8 8 11 12 12 15 17 17 16 15 14 13 12 11 10 9 8 7 6 6 5 4 4 4 5 5 6 6 6 7
5 5 3 1 1 2 3 1 2 2 2 0 4 6 5 4 7 8 7 7 7 7 8 10 11 14 15 15 15 15 14 12 11 10 9 8 7 6 5 4 2 2 2 2 3 4 5 6 6
4 5 2 3 4 3 2 1 1 1 2 0 2 3 1 6 9 9 6 5 7 8 6 8 9 11 13 14 14 15 14 12 11 10 10 9 7 6 5 4 3 1 1 2 3 4 5 6 6
5 3 4 4 4 3 2 2 2 1 1 2 3 1 4 6 9 9 9 11 12 12 10 6 8 10 11 12 13 12 12 11 10 10 10 9 8 6 4 4 4 4 3 4 5 5 6 5 6
4 5 4 4 4 3 2 3 2 3 6 8 8 6 6 6 7 9 9 10 12 12 11 9 8 11 11 9 10 10 10 10 10 10 10 9 7 5 4 4 4 5 4 5 5 6 6 6 7
2 3 4 4 2 3 4 3 3 6 10 6 7 5 7 8 10 10 10 9 9 9 12 11 9 10 11 10 9 9 9 9 9 10 10 9 6 5 5 5 5 5 5 5 6 6 7 7 8
2 3 3 4 4 4 4 6 5 8 8 3 1 4 7 9 8 7 7 7 8 10 12 11 10 9 10 9 8 8 9 9 9 10 10 10 8 6 6 5 5 6 6 6 6 6 7 7 8
2 3 5 5 4 3 5 5 4 10 4 3 5 6 7 7 7 5 6 7 9 11 12 12 12 11 11 8 7 8 9 9 9 9 9 10 9 7 6 5 5 6 7 7 6 6 6 6 7
1 4 7 4 3 3 2 7 7 8 2 5 6 6 6 6 5 6 6 7 8 9 10 12 12 10 10 9 8 8 9 9 8 7 8 8 8 7 6 4 4 6 6 6 5 5 5 4 5
4 4 4 6 3 1 2 9 10 4 5 7 8 7 7 6 5 5 5 5 6 7 10 11 11 11 9 8 8 7 8 8 7 6 6 6 6 6 5 3 4 5 4 3 2 2 2 3 3
4 2 4 7 3 1 3 9 10 3 5 9 9 9 8 7 5 4 2 3 4 7 9 11 10 11 10 8 8 7 7 6 6 6 5 4 4 4 4 3 2 2 1 1 1 1 1 3 4
5 4 5 6 5 2 6 12 14 8 8 11 10 9 9 9 8 3 1 2 4 6 8 9 9 9 9 7 6 5 5 4 5 5 4 4 3 3 3 2 0 1 1 0 1 1 1 2 3
5 5 7 8 6 4 10 15 18 12 9 11 11 11 11 10 5 3 3 4 5 6 7 8 10 9 9 6 5 5 4 3 2 4 5 5 4 4 3 2 2 2 1 0 1 0 1 2 2
4 5 7 8 5 4 9 14 14 11 10 11 12 13 12 9 6 6 5 4 4 6 7 8 9 9 9 6 5 4 4 3 3 4 5 5 5 4 4 3 2 1 1 1 1 1 1 1 1
6 7 7 8 7 5 7 11 9 9 6 8 9 9 10 12 11 9 7 6 5 6 8 8 9 9 8 8 6 5 5 4 3 2 2 3 4 4 4 3 3 2 2 1 0 0 1 1 1
8 8 7 5 4 6 3 7 10 9 9 9 9 8 10 9 10 9 8 7 7 6 6 7 8 8 8 9 8 7 5 4 3 2 2 2 4 4 4 3 3 2 1 1 1 1 1 2 2
8 2 3 2 3 5 3 5 11 7 9 10 9 9 9 10 10 10 9 8 7 6 7 7 8 8 8 8 8 8 5 4 3 3 3 2 2 3 3 3 2 1 1 1 1 1 2 2 3
6 6 5 5 3 4 5 6 9 6 8 9 7 7 8 9 9 8 7 7 6 6 6 7 9 7 7 8 8 8 8 7 6 3 3 1 0 1 1 1 1 0 1 1 2 2 3 3 4
5 5 3 4 2 7 3 5 11 12 9 9 11 9 8 10 10 10 10 10 9 9 8 8 9 8 7 8 7 8 8 8 7 5 4 3 1 1 1 0 1 1 2 3 3 2 3 4 4
7 10 7 5 5 6 3 7 10 11 10 9 9 8 7 10 10 11 11 11 10 10 9 9 9 8 8 8 7 6 7 5 4 4 4 4 3 3 2 2 2 3 3 3 3 3 4 4 5
8 7 7 5 2 4 7 8 11 8 8 6 5 3 7 10 11 11 10 10 10 10 10 10 10 8 8 8 7 7 6 6 5 4 4 3 3 2 2 2 3 3 4 4 3 4 5 5 6
7 9 6 6 4 6 7 6 6 10 10 9 7 6 7 8 9 10 10 10 9 9 8 8 9 9 8 8 7 6 6 6 5 5 4 4 3 3 3 3 3 4 4 4 4 5 5 6 6
7 6 6 6 5 6 5 7 7 9 9 10 10 8 7 9 10 10 9 9 9 8 9 8 8 8 8 8 7 7 6 5 5 5 5 4 4 4 4 4 4 5 5 5 5 6 7 7 7
8 10 9 7 7 6 5 8 8 8 9 9 10 7 6 7 8 8 9 9 9 10 9 10 9 9 8 8 7 7 6 5 5 5 5 4 4 4 5 4 5 6 6 6 6 7 7 8 8
Wind_Direction
332 356 65 56 55 54 94 253 227 240 250 235 130 139 142 149 157 175 320 148 142 150 172 172 160 161 159 150 140 133 126 120 114 107 99 96 92 87 81 76 71 69 66 64 63 62 60 58 56
330 31 53 59 85 84 282 251 218 222 216 115 85 105 111 128 131 137 144 173 152 155 167 170 163 163 161 154 147 140 133 126 119 114 106 100 93 87 82 78 73 70 67 65 63 61 61 58 55
11 49 77 73 104 159 204 228 217 278 44 114 92 68 128 150 166 180 180 163 147 155 166 167 165 165 163 158 152 145 138 132 126 120 114 105 96 89 83 78 74 70 67 65 62 59 59 57 54
69 45 55 72 109 213 229 267 235 314 39 64 120 98 305 304 247 196 144 148 144 154 164 168 168 167 166 162 156 151 146 141 134 129 123 112 102 93 86 81 76 72 67 64 61 57 55 53 52
58 72 60 48 326 295 276 295 180 225 348 65 128 145 246 3 59 126 143 149 150 154 165 172 171 171 169 167 162 158 154 149 141 137 132 121 111 102 96 87 80 73 67 62 58 55 53 50 47
54 65 81 38 316 318 322 337 72 340 262 121 135 152 244 13 107 137 146 149 152 154 164 175 176 175 173 171 167 163 159 155 151 148 142 131 120 117 109 98 87 75 66 59 53 49 45 43 40
98 90 122 149 315 331 337 341 145 184 202 228 161 153 272 292 128 132 130 133 143 156 162 177 181 178 177 175 172 169 165 163 161 158 152 142 134 131 123 112 96 81 64 53 44 38 32 29 26
114 101 97 116 170 288 312 337 170 187 217 99 147 167 227 210 120 111 107 120 142 157 166 177 180 177 177 177 176 173 172 171 170 166 158 152 146 141 134 133 124 89 55 35 25 16 13 12 9
86 77 138 204 195 254 299 344 305 189 141 254 217 218 260 119 118 114 119 140 164 176 179 178 177 174 175 176 179 177 176 177 174 168 163 156 152 150 150 162 191 238 302 326 339 343 350 359 357
82 129 215 218 205 226 264 234 270 327 281 264 265 224 108 132 146 154 167 177 184 189 189 183 177 172 172 176 177 176 175 176 171 166 164 159 161 169 181 199 230 259 290 305 319 331 339 341 329
122 179 229 251 230 226 240 246 228 198 248 232 226 217 161 166 173 181 186 189 193 191 190 187 180 175 172 171 169 170 170 170 168 169 168 167 170 179 195 220 251 271 285 292 303 314 313 309 306
146 227 222 252 224 208 224 238 242 215 232 238 225 199 176 186 197 202 202 199 190 189 195 188 180 175 175 171 168 169 168 169 171 175 176 174 176 187 203 221 238 251 261 268 275 282 288 291 293
211 261 257 261 269 250 247 242 246 249 249 260 188 171 189 201 215 222 217 204 191 195 196 190 181 178 173 168 169 172 176 177 181 182 186 187 186 196 207 222 234 244 250 254 260 269 280 286 292
251 273 294 287 270 248 231 256 234 260 246 210 196 199 205 211 220 226 221 210 201 199 196 189 186 180 173 170 171 174 179 179 178 185 193 197 198 200 202 216 230 245 251 256 260 267 274 280 285
40 342 323 305 278 272 226 290 242 251 190 220 221 217 219 227 229 231 232 220 208 200 192 188 186 177 173 172 174 175 174 173 175 185 195 198 201 203 204 213 233 248 256 258 261 270 274 279 284
53 26 318 300 299 279 167 273 273 263 199 232 234 231 231 237 238 249 250 230 208 187 181 183 182 175 173 168 167 166 166 164 170 178 184 191 198 203 200 210 239 256 254 247 249 254 274 279 285
25 317 280 301 293 224 216 260 276 267 216 242 241 236 235 242 247 254 250 213 184 175 169 170 170 170 167 157 151 147 146 148 154 154 157 166 173 181 183 203 241 254 229 242 260 249 245 280 293
238 244 262 272 289 255 254 262 274 268 235 243 243 237 233 232 234 229 191 147 141 147 152 157 157 157 150 138 125 118 113 111 118 124 132 134 134 142 146 144 86 74 92 351 319 281 270 268 289
190 218 255 263 272 271 262 269 276 271 249 246 241 232 228 228 224 187 148 127 121 128 141 152 153 154 150 146 145 140 140 128 105 98 104 105 105 107 113 103 82 77 102 277 337 332 322 309 333
198 243 268 284 286 248 276 278 273 264 245 237 232 227 221 212 198 187 167 149 145 145 147 151 155 156 156 152 143 131 128 121 110 100 89 88 94 98 105 106 99 92 93 42 36 56 4 318 11
215 218 243 265 314 323 319 299 287 284 261 259 242 226 212 201 195 188 178 170 156 154 157 156 154 151 146 137 122 104 91 83 84 83 83 63 83 89 92 96 97 90 104 78 3 137 173 272 307
240 226 223 257 305 296 354 301 289 282 292 272 254 229 213 200 187 184 182 177 174 166 152 144 143 142 142 144 146 144 146 149 159 147 124 70 71 77 83 89 92 92 98 121 271 167 194 195 256
212 184 175 231 225 292 277 245 284 306 291 281 262 237 221 201 188 185 183 177 166 155 148 141 135 135 141 145 147 140 133 134 130 117 109 83 50 64 74 88 94 98 117 204 229 235 217 202 214
145 81 63 52 77 282 238 208 281 265 251 282 286 248 223 200 187 177 165 155 153 149 144 144 140 138 140 139 141 143 143 143 141 141 146 146 56 25 46 81 94 161 239 247 243 234 235 228 229
124 109 3 333 332 254 229 215 254 258 255 259 274 263 222 194 181 175 172 172 169 165 160 155 148 146 147 143 144 149 150 154 160 166 172 174 190 226 249 256 257 262 262 262 253 239 248 239 235
175 158 175 218 241 282 268 238 257 266 275 272 269 257 206 189 187 187 185 180 176 173 167 162 159 154 156 152 152 152 152 154 162 169 172 186 199 216 226 246 256 265 269 267 257 245 251 242 241
152 194 173 148 208 268 271 280 298 294 303 304 303 259 209 198 193 191 185 182 179 177 176 171 165 160 163 161 155 157 159 162 168 171 176 190 206 215 228 245 257 267 268 266 258 252 258 253 248
154 148 122 152 203 252 275 270 255 291 302 312 303 270 238 208 197 194 189 187 183 178 172 169 168 169 167 165 165 165 170 173 171 171 187 201 213 215 229 246 252 259 265 263 254 259 259 257 256
136 150 152 159 176 188 254 265 231 245 274 293 290 269 236 213 204 198 192 185 176 170 170 174 174 168 169 172 170 167 174 174 172 185 202 207 214 222 234 244 252 258 262 258 255 257 261 259 263
175 175 157 175 216 200 212 264 264 253 271 276 284 277 240 216 205 194 183 175 176 180 180 181 179 178 179 174 171 175 176 176 186 204 214 213 224 232 238 244 252 257 259 257 254 262 264 260 264
Height
1524 1525 1526 1528 1532 1545 1546 1541 1538 1537 1536 1535 1535 1535 1537 1539 1543 1547 1543 1541 1542 1543 1544 1546 1548 1550 1552 1554 1555 1556 1556 1557 1557 1558 1558 1558 1558 1558 1558 1557 1557 1557 1557 1556 1556 1556 1556 1556 1555
1525 1526 1528 1528 1541 1554 1548 1539 1537 1535 1534 1535 1535 1536 1536 1538 1539 1540 1541 1542 1543 1544 1545 1546 1548 1550 1552 1554 1555 1556 1557 1558 1558 1559 1559 1559 1559 1559 1559 1558 1558 1558 1558 1557 1557 1557 1557 1556 1556
1526 1527 1529 1532 1544 1549 1543 1535 1534 1534 1534 1534 1535 1536 1537 1538 1539 1540 1541 1542 1543 1544 1545 1547 1548 1550 1552 1554 1555 1556 1557 1558 1559 1559 1560 1560 1560 1560 1560 1559 1559 1559 1559 1558 1558 1558 1558 1557 1557
1527 1529 1530 1538 1541 1540 1537 1534 1534 1534 1534 1534 1535 1536 1537 1538 1539 1540 1541 1542 1543 1544 1545 1547 1549 1550 1552 1554 1555 1556 1557 1558 1559 1560 1560 1561 1561 1561 1561 1561 1560 1560 1560 1560 1559 1559 1559 1558 1558
1528 1528 1536 1544 1541 1537 1534 1533 1534 1534 1534 1534 1535 1536 1536 1538 1538 1539 1541 1542 1543 1544 1545 1547 1549 1550 1552 1554 1555 1557 1558 1559 1560 1560 1561 1561 1562 1562 1562 1561 1561 1561 1561 1561 1560 1560 1560 1559 1559
1529 1530 1545 1548 1542 1537 1534 1533 1533 1534 1534 1534 1535 1535 1536 1537 1538 1539 1541 1542 1543 1544 1545 1547 1549 1550 1552 1554 1555 1557 1558 1559 1560 1561 1562 1562 1562 1562 1562 1562 1562 1562 1562 1562 1561 1561 1561 1560 1560
1530 1536 1544 1543 1543 1538 1534 1533 1534 1534 1534 1534 1534 1535 1535 1536 1537 1538 1540 1541 1542 1544 1545 1546 1548 1550 1552 1554 1556 1557 1558 1560 1561 1561 1562 1563 1563 1563 1563 1563 1563 1563 1563 1562 1562 1562 1562 1561 1561
1530 1535 1542 1544 1542 1538 1534 1533 1533 1533 1534 1534 1534 1534 1534 1535 1536 1537 1538 1540 1541 1543 1544 1546 1548 1550 1552 1554 1555 1557 1558 1560 1561 1562 1562 1563 1563 1564 1564 1564 1564 1564 1563 1563 1563 1563 1562 1562 1561
1530 1540 1545 1541 1539 1536 1533 1533 1533 1533 1533 1533 1533 1533 1533 1533 1534 1536 1537 1538 1539 1541 1543 1545 1546 1549 1551 1553 1555 1557 1558 1559 1561 1561 1562 1563 1563 1564 1564 1564 1564 1564 1564 1563 1563 1563 1562 1562 1561
1531 1542 1538 1535 1534 1533 1532 1532 1532 1532 1532 1531 1531 1531 1531 1531 1532 1533 1534 1535 1537 1538 1541 1543 1545 1547 1550 1552 1554 1556 1557 1559 1560 1561 1562 1562 1563 1563 1564 1564 1564 1564 1563 1563 1563 1562 1562 1561 1561
1531 1536 1533 1532 1532 1531 1531 1531 1530 1530 1530 1529 1529 1529 1529 1529 1530 1531 1532 1533 1535 1537 1539 1541 1543 1546 1548 1550 1552 1554 1556 1558 1559 1560 1561 1562 1562 1563 1563 1563 1563 1563 1563 1562 1562 1561 1561 1560 1559
1531 1531 1531 1530 1530 1530 1530 1529 1529 1528 1527 1526 1526 1526 1527 1527 1528 1529 1530 1531 1533 1534 1536 1539 1541 1544 1546 1549 1551 1553 1555 1557 1558 1559 1560 1561 1561 1562 1562 1562 1562 1562 1562 1561 1560 1560 1559 1558 1557
1531 1530 1529 1529 1529 1528 1528 1527 1527 1524 1523 1523 1523 1524 1524 1525 1526 1527 1527 1529 1530 1531 1534 1536 1539 1542 1545 1547 1549 1552 1553 1555 1557 1558 1559 1559 1560 1560 1561 1561 1561 1560 1560 1559 1559 1558 1557 1556 1555
1530 1529 1528 1527 1526 1526 1526 1524 1524 1519 1520 1520 1520 1521 1521 1522 1523 1524 1524 1525 1526 1528 1531 1533 1536 1540 1543 1545 1548 1550 1552 1554 1555 1556 1557 1558 1558 1559 1559 1559 1559 1558 1558 1557 1556 1555 1554 1553 1552
1529 1529 1528 1525 1525 1524 1525 1525 1520 1517 1517 1517 1517 1518 1519 1519 1520 1520 1521 1521 1523 1525 1527 1530 1534 1537 1540 1543 1546 1548 1550 1552 1554 1555 1556 1556 1556 1557 1557 1557 1556 1556 1555 1554 1554 1553 1551 1550 1549
1529 1533 1535 1527 1524 1524 1528 1528 1516 1515 1515 1514 1514 1515 1515 1516 1517 1518 1518 1518 1519 1521 1524 1527 1531 1534 1538 1541 1544 1547 1549 1550 1552 1553 1554 1554 1554 1554 1554 1554 1554 1553 1552 1551 1550 1549 1548 1546 1544
1536 1540 1537 1531 1524 1524 1526 1525 1514 1513 1512 1511 1511 1511 1512 1513 1514 1515 1515 1516 1517 1519 1521 1525 1528 1532 1536 1539 1542 1545 1547 1549 1550 1551 1552 1552 1552 1552 1552 1551 1551 1550 1549 1548 1547 1545 1544 1542 1540
1539 1538 1537 1534 1526 1525 1526 1522 1512 1509 1509 1507 1507 1507 1508 1509 1510 1512 1513 1514 1515 1517 1519 1523 1526 1530 1533 1537 1540 1543 1545 1546 1548 1549 1549 1550 1550 1549 1549 1548 1548 1547 1546 1544 1543 1542 1540 1538 1536
1532 1535 1536 1532 1525 1525 1524 1518 1509 1504 1504 1502 1500 1501 1502 1504 1507 1508 1510 1512 1514 1515 1518 1520 1524 1527 1531 1534 1537 1540 1542 1544 1545 1546 1547 1547 1547 1547 1546 1545 1544 1543 1542 1541 1540 1538 1537 1535 1533
1531 1534 1535 1530 1524 1524 1523 1515 1504 1498 1496 1494 1493 1493 1495 1499 1502 1504 1507 1509 1511 1513 1516 1518 1521 1525 1528 1532 1535 1538 1540 1542 1543 1544 1544 1544 1544 1544 1543 1542 1541 1540 1539 1538 1537 1535 1533 1532 1530
1530 1533 1531 1530 1526 1523 1524 1515 1503 1494 1490 1488 1487 1487 1490 1493 1496 1500 1503 1506 1509 1511 1514 1516 1519 1523 1526 1529 1533 1535 1537 1539 1540 1541 1542 1542 1541 1541 1540 1539 1538 1537 1536 1535 1533 1532 1530 1528 1527
1530 1525 1526 1527 1531 1534 1529 1530 1506 1496 1490 1485 1483 1483 1484 1487 1492 1496 1499 1503 1506 1509 1512 1515 1518 1521 1524 1527 1530 1532 1535 1536 1538 1539 1539 1539 1539 1538 1537 1536 1535 1534 1532 1531 1530 1528 1526 1525 1523
1522 1520 1524 1526 1529 1534 1531 1533 1510 1498 1491 1482 1479 1479 1480 1483 1487 1492 1496 1500 1503 1507 1510 1512 1515 1519 1522 1525 1528 1530 1532 1534 1535 1536 1536 1536 1536 1535 1534 1533 1532 1530 1529 1527 1526 1524 1523 1521 1519
1517 1523 1528 1534 1536 1539 1530 1533 1518 1499 1488 1481 1477 1476 1477 1481 1485 1489 1494 1498 1501 1504 1507 1510 1513 1517 1520 1523 1525 1528 1530 1531 1532 1533 1533 1533 1532 1532 1531 1529 1528 1527 1525 1524 1522 1520 1518 1516 1514
1517 1528 1539 1538 1541 1538 1527 1529 1514 1487 1482 1480 1476 1474 1475 1478 1482 1486 1490 1494 1498 1501 1505 1508 1511 1514 1517 1520 1523 1525 1527 1528 1529 1530 1530 1530 1529 1528 1527 1526 1525 1523 1521 1520 1518 1516 1514 1512 1510
1517 1521 1535 1539 1540 1535 1526 1526 1501 1481 1477 1475 1474 1472 1472 1474 1478 1482 1487 1491 1495 1499 1502 1506 1509 1512 1515 1518 1520 1522 1524 1525 1526 1526 1526 1526 1525 1525 1523 1522 1520 1519 1517 1515 1513 1511 1509 1507 1505
1515 1519 1518 1530 1533 1535 1527 1515 1497 1477 1474 1473 1471 1470 1470 1472 1476 1480 1485 1489 1493 1496 1500 1504 1507 1510 1513 1515 1518 1519 1521 1522 1523 1523 1523 1522 1521 1521 1519 1518 1516 1514 1512 1510 1508 1506 1504 1502 1499
1505 1511 1524 1529 1534 1533 1525 1517 1503 1483 1476 1473 1471 1470 1469 1471 1474 1478 1482 1486 1491 1495 1498 1502 1505 1508 1510 1513 1515 1516 1518 1519 1519 1519 1519 1518 1517 1516 1515 1513 1511 1509 1507 1505 1503 1501 1498 1496 1493
1508 1511 1514 1522 1526 1530 1527 1512 1487 1481 1476 1474 1470 1468 1468 1469 1472 1475 1479 1484 1488 1492 1495 1498 1502 1504 1507 1509 1511 1513 1514 1515 1515 1515 1515 1514 1513 1512 1510 1508 1506 1504 1502 1500 1497 1495 1492 1489 1487
1496 1501 1508 1518 1521 1525 1524 1507 1476 1476 1473 1472 1469 1467 1467 1468 1470 1473 1477 1481 1484 1488 1491 1495 1498 1501 1504 1506 1508 1509 1510 1511 1511 1511 1510 1509 1508 1506 1505 1503 1501 1499 1496 1494 1491 1488 1486 1483 1480